Baltimore Washington International/Thurgood Marshall Airport

Airport
ICAO code: 
KBWI
IATA Code: 
BWI
Summary
ICAO Region: 
NAM
Territory: 
Location: 
Baltimore, Maryland,
Serving: 
Baltimore and Washington DC
Elevation: 
146 ft
Coordinates: 
Aerial View: 
39° 10' 24.122" N, 76° 40' 5.23" W
Airport WX: 
Cumulonimbus
Metar
Observation
KBWI 251319Z 07008KT 10SM SCT020 SCT032 OVC065 17/12 A3035 RMK AO2 T01720122
Station
Baltimore, Baltimore-Washington International Airport
Date/Time
2022-05-25 13:19:00
Wind direction
70°
Wind speed
08 kts
Lowest cloud amount
scattered clouds
Temperature
17.2°C
Dew point
12.2°C
Humidity
72%
Weather condition
n/a

Description

International airport serving Baltimore and Washington DC.

Climatology

Humid “subtropical” climate (Köppen climate classification Cfa) - characterized by hot, humid summers and cool winters. Significant amounts of precipitation occur in all seasons in most areas. Winter rainfall (and sometimes snowfall) is associated with large storms that the westerlies steer from west to east. Most summer rainfall occurs during thunderstorms and occasional tropical storms (hurricanes).

Runways

Designator Length Width Surface Rops
15L/33R 1524 30 ASP Yes/Yes
4/22 1829 46 ASP Yes/Yes
15R/33L 2896 46 ASP Yes/Yes
10/28 3201 61 ASP Yes/Yes
Airport map: 
Aerial View: 

Accidents and Serious Incidents at or in the vicinity of KBWI

SKYbrary Partners:

Safety knowledge contributed by: